SWR457 LOWW-LEPA

Flight info

Callsign SWR457
Flight time 2h 2m
Altitude 38000
Route OSPEN DCT ABRUK DCT SETAL DCT DETSA/N0464F390 DCT MOBDO DCT PIDAD DCT TALEP DCT RARQU DCT BALEN UT250 RIXOT
Aircraft B77W/H-SDE1E2E3FGHIJ2J3J4J5M1RWXY/LB1D1

Departure

Time 2026-04-25 12:32
Airport Vienna International Airport (LOWW)

Arrival

Time 2026-04-25 14:34
Airport Palma de Mallorca Airport (LEPA)
Time Latitude Longitude Altitude Speed Heading
2026-04-25 12:07 48.11782 16.56188 627 ft 0 kts 345°
2026-04-25 12:25 48.11769 16.56194 631 ft 4 kts 346°
2026-04-25 12:26 48.11742 16.56203 631 ft 4 kts 349°
2026-04-25 12:26 48.11716 16.56210 631 ft 4 kts 352°
2026-04-25 12:26 48.11688 16.56214 631 ft 4 kts 357°
2026-04-25 12:26 48.11662 16.56214 631 ft 4 kts
2026-04-25 12:27 48.11638 16.56201 631 ft 3 kts 45°
2026-04-25 12:27 48.11636 16.56199 631 ft 0 kts 49°
2026-04-25 12:29 48.11639 16.56204 631 ft 5 kts 54°
2026-04-25 12:29 48.11627 16.56276 631 ft 8 kts 118°
2026-04-25 12:29 48.11593 16.56377 626 ft 14 kts 116°
2026-04-25 12:29 48.11539 16.56539 628 ft 21 kts 116°
2026-04-25 12:30 48.11468 16.56762 627 ft 27 kts 115°
2026-04-25 12:30 48.11384 16.57025 627 ft 28 kts 115°
2026-04-25 12:30 48.11299 16.57291 628 ft 28 kts 115°
2026-04-25 12:30 48.11216 16.57538 624 ft 21 kts 120°
2026-04-25 12:31 48.11107 16.57610 625 ft 17 kts 148°
2026-04-25 12:31 48.11006 16.57620 621 ft 13 kts 209°
2026-04-25 12:31 48.10935 16.57545 627 ft 13 kts 238°
2026-04-25 12:31 48.10953 16.57421 620 ft 13 kts 296°
2026-04-25 12:32 48.11050 16.57117 625 ft 80 kts 295°
2026-04-25 12:32 48.11471 16.55823 737 ft 190 kts 296°
2026-04-25 12:32 48.12080 16.53940 2327 ft 195 kts 296°
2026-04-25 12:32 48.12584 16.52102 3546 ft 195 kts 279°
2026-04-25 12:33 48.12311 16.50002 3819 ft 230 kts 242°
2026-04-25 12:33 48.11039 16.48301 4292 ft 261 kts 208°
2026-04-25 12:33 48.09276 16.47477 5080 ft 272 kts 197°
2026-04-25 12:33 48.07430 16.46757 5936 ft 271 kts 207°
2026-04-25 12:34 48.05933 16.45170 6740 ft 265 kts 229°
2026-04-25 12:34 48.04570 16.43196 7482 ft 276 kts 226°
2026-04-25 12:34 48.03149 16.41285 8428 ft 279 kts 225°
2026-04-25 12:34 48.02156 16.39980 9064 ft 282 kts 225°
2026-04-25 12:35 48.00164 16.37370 10204 ft 290 kts 225°
2026-04-25 12:35 47.98615 16.35345 10680 ft 312 kts 225°
2026-04-25 12:35 47.96903 16.33094 10892 ft 338 kts 227°
2026-04-25 12:35 47.95498 16.30230 11304 ft 345 kts 250°
2026-04-25 12:36 47.94711 16.26886 12163 ft 349 kts 253°
2026-04-25 12:36 47.93900 16.23410 13233 ft 355 kts 253°
2026-04-25 12:36 47.93063 16.19951 14416 ft 358 kts 252°
2026-04-25 12:36 47.92221 16.16501 15322 ft 365 kts 252°
2026-04-25 12:37 47.91342 16.12922 16342 ft 369 kts 252°
2026-04-25 12:37 47.90448 16.09291 17457 ft 373 kts 252°
2026-04-25 12:37 47.89555 16.05671 18472 ft 377 kts 252°
2026-04-25 12:37 47.88640 16.01969 19355 ft 382 kts 252°
2026-04-25 12:38 47.87772 15.98595 20109 ft 384 kts 248°
2026-04-25 12:38 47.86275 15.95204 20846 ft 397 kts 230°
2026-04-25 12:38 47.84140 15.92532 21681 ft 402 kts 220°
2026-04-25 12:38 47.81893 15.90058 22472 ft 409 kts 220°
2026-04-25 12:39 47.79595 15.87522 23377 ft 412 kts 220°
2026-04-25 12:39 47.77319 15.84995 24161 ft 415 kts 220°
2026-04-25 12:39 47.74995 15.82398 24884 ft 418 kts 220°
2026-04-25 12:39 47.72685 15.79807 25587 ft 422 kts 220°
2026-04-25 12:40 47.70333 15.77162 26311 ft 425 kts 220°
2026-04-25 12:40 47.68023 15.74561 26966 ft 428 kts 220°
2026-04-25 12:40 47.65654 15.71896 27613 ft 432 kts 220°
2026-04-25 12:40 47.63255 15.69201 28263 ft 436 kts 220°
2026-04-25 12:41 47.60828 15.66477 28939 ft 439 kts 220°
2026-04-25 12:41 47.58374 15.63728 29568 ft 442 kts 220°
2026-04-25 12:41 47.55905 15.60966 30077 ft 446 kts 220°
2026-04-25 12:41 47.53440 15.58210 30521 ft 450 kts 220°
2026-04-25 12:42 47.50935 15.55373 30958 ft 448 kts 223°
2026-04-25 12:42 47.49474 15.53219 31083 ft 449 kts 234°
2026-04-25 12:42 47.47429 15.47903 31627 ft 446 kts 252°
2026-04-25 12:42 47.46593 15.43512 32119 ft 442 kts 256°
2026-04-25 12:43 47.45796 15.39114 32766 ft 439 kts 256°
2026-04-25 12:43 47.44993 15.34807 33410 ft 436 kts 256°
2026-04-25 12:43 47.43346 15.26257 34473 ft 432 kts 255°
2026-04-25 12:44 47.42506 15.21981 34854 ft 432 kts 256°
2026-04-25 12:44 47.41662 15.17700 35179 ft 434 kts 255°
2026-04-25 12:44 47.39977 15.09168 35947 ft 433 kts 255°
2026-04-25 12:45 47.39133 15.04896 36392 ft 431 kts 255°
2026-04-25 12:45 47.38290 15.00644 36799 ft 431 kts 255°
2026-04-25 12:45 47.36610 14.92200 37582 ft 429 kts 256°
2026-04-25 12:46 47.35766 14.87968 37939 ft 429 kts 256°
2026-04-25 12:46 47.34915 14.83699 37986 ft 435 kts 256°
2026-04-25 12:46 47.33206 14.75175 38040 ft 430 kts 256°
2026-04-25 12:47 47.31511 14.66740 38024 ft 427 kts 256°
2026-04-25 12:47 47.29825 14.58371 38033 ft 426 kts 255°
2026-04-25 12:48 47.28130 14.50029 38025 ft 427 kts 255°
2026-04-25 12:48 47.26423 14.41648 38043 ft 429 kts 255°
2026-04-25 12:49 47.24696 14.33189 38013 ft 431 kts 255°
2026-04-25 12:49 47.22962 14.24744 38037 ft 432 kts 255°
2026-04-25 12:50 47.21211 14.16297 38033 ft 432 kts 255°
2026-04-25 12:50 47.19458 14.07888 38049 ft 432 kts 255°
2026-04-25 12:51 47.17684 13.99394 38038 ft 432 kts 255°
2026-04-25 12:51 47.15922 13.91004 38034 ft 432 kts 254°
2026-04-25 12:52 47.14142 13.82553 38047 ft 432 kts 254°
2026-04-25 12:52 47.12368 13.74164 38044 ft 432 kts 254°
2026-04-25 12:53 47.10574 13.65715 38043 ft 432 kts 254°
2026-04-25 12:53 47.08787 13.57336 38033 ft 432 kts 254°
2026-04-25 12:54 47.06984 13.48917 38043 ft 432 kts 254°
2026-04-25 12:54 47.05186 13.40553 38047 ft 432 kts 254°
2026-04-25 12:55 47.03970 13.34915 38021 ft 432 kts 254°
2026-04-25 12:55 47.01555 13.23770 38035 ft 432 kts 253°
2026-04-25 12:56 46.99721 13.15339 38018 ft 434 kts 253°
2026-04-25 12:56 46.97888 13.06950 38031 ft 434 kts 253°
2026-04-25 12:57 46.96035 12.98505 38040 ft 434 kts 253°
2026-04-25 12:57 46.94183 12.90097 38045 ft 434 kts 253°
2026-04-25 12:58 46.92330 12.81726 38027 ft 434 kts 253°
2026-04-25 12:58 46.90460 12.73302 38041 ft 432 kts 253°
2026-04-25 12:59 46.88602 12.64953 38036 ft 434 kts 252°
2026-04-25 12:59 46.86731 12.56601 38084 ft 434 kts 252°
2026-04-25 13:00 46.85459 12.50945 38038 ft 436 kts 252°
2026-04-25 13:00 46.82949 12.39782 38064 ft 436 kts 252°
2026-04-25 13:01 46.80809 12.31488 38068 ft 437 kts 242°
2026-04-25 13:01 46.77248 12.24293 38077 ft 441 kts 228°
2026-04-25 13:02 46.73429 12.19340 38087 ft 442 kts 222°
2026-04-25 13:02 46.68709 12.13613 38034 ft 442 kts 222°
2026-04-25 13:03 46.63997 12.07838 37999 ft 442 kts 223°
2026-04-25 13:03 46.59295 12.02024 38021 ft 441 kts 223°
2026-04-25 13:04 46.54637 11.96263 38014 ft 441 kts 223°
2026-04-25 13:04 46.49967 11.90504 38012 ft 441 kts 223°
2026-04-25 13:05 46.45306 11.84769 38018 ft 441 kts 223°
2026-04-25 13:05 46.40630 11.79059 38007 ft 441 kts 222°
2026-04-25 13:06 46.35871 11.73445 38013 ft 441 kts 221°
2026-04-25 13:06 46.31105 11.67868 38023 ft 441 kts 221°
2026-04-25 13:07 46.26322 11.62264 38022 ft 441 kts 221°
2026-04-25 13:07 46.21574 11.56702 38043 ft 442 kts 221°
2026-04-25 13:08 46.16802 11.51114 38029 ft 441 kts 221°
2026-04-25 13:08 46.12039 11.45555 38022 ft 441 kts 221°
2026-04-25 13:09 46.07271 11.40005 38031 ft 441 kts 221°
2026-04-25 13:09 46.02476 11.34434 38034 ft 440 kts 221°
2026-04-25 13:10 45.97726 11.28927 38048 ft 439 kts 221°
2026-04-25 13:10 45.92935 11.23382 38305 ft 443 kts 222°
2026-04-25 13:11 45.90558 11.20638 38745 ft 440 kts 221°
2026-04-25 13:11 45.88166 11.17882 39038 ft 439 kts 221°
2026-04-25 13:11 45.83372 11.12361 39050 ft 443 kts 221°
2026-04-25 13:12 45.78582 11.06860 39033 ft 441 kts 221°
2026-04-25 13:12 45.74589 11.02283 39033 ft 440 kts 221°
2026-04-25 13:13 45.69011 10.95905 39027 ft 439 kts 221°
2026-04-25 13:13 45.64242 10.90463 39016 ft 440 kts 221°
2026-04-25 13:14 45.59460 10.85018 39028 ft 440 kts 221°
2026-04-25 13:14 45.54680 10.79588 39022 ft 441 kts 221°
2026-04-25 13:15 45.49867 10.74134 39026 ft 441 kts 221°
2026-04-25 13:15 45.45075 10.68716 39011 ft 442 kts 221°
2026-04-25 13:16 45.40241 10.63262 39025 ft 442 kts 221°
2026-04-25 13:16 45.35437 10.57855 39026 ft 443 kts 221°
2026-04-25 13:17 45.30583 10.52403 39020 ft 443 kts 221°
2026-04-25 13:17 45.25739 10.46974 39018 ft 444 kts 220°
2026-04-25 13:18 45.20908 10.41574 39023 ft 444 kts 220°
2026-04-25 13:18 45.16028 10.36128 39025 ft 444 kts 220°
2026-04-25 13:19 45.11171 10.30722 39009 ft 445 kts 220°
2026-04-25 13:19 45.07137 10.26240 39019 ft 445 kts 220°
2026-04-25 13:20 45.01450 10.19937 39023 ft 445 kts 220°
2026-04-25 13:20 44.96564 10.14534 39025 ft 445 kts 220°
2026-04-25 13:21 44.91704 10.09172 39013 ft 445 kts 220°
2026-04-25 13:21 44.86801 10.03775 39022 ft 445 kts 220°
2026-04-25 13:22 44.81927 9.98421 39029 ft 446 kts 220°
2026-04-25 13:23 44.74567 9.90359 39018 ft 446 kts 219°
2026-04-25 13:23 44.69687 9.85028 39031 ft 447 kts 220°
2026-04-25 13:24 44.64768 9.79666 39046 ft 447 kts 219°
2026-04-25 13:24 44.59867 9.74335 39056 ft 448 kts 219°
2026-04-25 13:25 44.54920 9.68966 39058 ft 448 kts 219°
2026-04-25 13:25 44.49997 9.63637 39069 ft 448 kts 219°
2026-04-25 13:26 44.45036 9.58277 39068 ft 449 kts 219°
2026-04-25 13:26 44.40119 9.52976 39081 ft 449 kts 219°
2026-04-25 13:27 44.35159 9.47642 39094 ft 449 kts 219°
2026-04-25 13:27 44.30194 9.42312 39093 ft 449 kts 219°
2026-04-25 13:28 44.25245 9.37011 39096 ft 449 kts 219°
2026-04-25 13:28 44.20314 9.31741 39094 ft 448 kts 219°
2026-04-25 13:29 44.15342 9.26440 39104 ft 448 kts 219°
2026-04-25 13:29 44.10403 9.21184 39101 ft 448 kts 219°
2026-04-25 13:30 44.02976 9.13302 39093 ft 449 kts 218°
2026-04-25 13:31 43.95490 9.05384 39108 ft 450 kts 219°
2026-04-25 13:31 43.90521 9.00142 39095 ft 451 kts 219°
2026-04-25 13:32 43.85532 8.94889 39083 ft 452 kts 218°
2026-04-25 13:32 43.80512 8.89616 39102 ft 452 kts 218°
2026-04-25 13:33 43.75481 8.84342 39101 ft 453 kts 218°
2026-04-25 13:33 43.70454 8.79081 39097 ft 453 kts 218°
2026-04-25 13:34 43.65352 8.73984 39093 ft 453 kts 210°
2026-04-25 13:34 43.62443 8.72253 39099 ft 455 kts 198°
2026-04-25 13:34 43.59370 8.71240 39102 ft 457 kts 189°
2026-04-25 13:35 43.52994 8.71126 39108 ft 460 kts 180°
2026-04-25 13:35 43.46721 8.70164 39105 ft 454 kts 202°
2026-04-25 13:35 43.43883 8.68239 39111 ft 452 kts 214°
2026-04-25 13:36 43.41460 8.65596 39105 ft 449 kts 224°
2026-04-25 13:36 43.36843 8.59729 39112 ft 452 kts 223°
2026-04-25 13:37 43.32194 8.53903 39105 ft 454 kts 223°
2026-04-25 13:37 43.27512 8.48112 39104 ft 455 kts 223°
2026-04-25 13:38 43.22779 8.42296 39102 ft 456 kts 223°
2026-04-25 13:38 43.18037 8.36484 39102 ft 455 kts 223°
2026-04-25 13:39 43.13326 8.30721 39107 ft 454 kts 223°
2026-04-25 13:39 43.08626 8.24983 39105 ft 454 kts 223°
2026-04-25 13:40 43.03922 8.19251 39103 ft 454 kts 222°
2026-04-25 13:40 42.99210 8.13522 39114 ft 455 kts 223°
2026-04-25 13:41 42.94461 8.07760 39110 ft 455 kts 223°
2026-04-25 13:41 42.89729 8.02031 39109 ft 456 kts 222°
2026-04-25 13:42 42.84967 7.96279 39113 ft 457 kts 222°
2026-04-25 13:42 42.80235 7.90574 39114 ft 456 kts 222°
2026-04-25 13:43 42.75490 7.84866 39113 ft 456 kts 222°
2026-04-25 13:43 42.70727 7.79148 39113 ft 455 kts 222°
2026-04-25 13:44 42.65977 7.73459 39119 ft 456 kts 222°
2026-04-25 13:44 42.61219 7.67772 39111 ft 457 kts 222°
2026-04-25 13:45 42.56435 7.62066 39119 ft 458 kts 222°
2026-04-25 13:45 42.51659 7.56382 39124 ft 457 kts 222°
2026-04-25 13:46 42.46890 7.50717 39112 ft 456 kts 222°
2026-04-25 13:46 42.42106 7.45046 39117 ft 455 kts 222°
2026-04-25 13:47 42.37358 7.39431 39118 ft 454 kts 222°
2026-04-25 13:47 42.32605 7.33820 39123 ft 455 kts 222°
2026-04-25 13:48 42.27824 7.28189 39122 ft 456 kts 221°
2026-04-25 13:48 42.23021 7.22544 39125 ft 457 kts 221°
2026-04-25 13:49 42.18225 7.16919 39126 ft 458 kts 221°
2026-04-25 13:49 42.14201 7.12207 39125 ft 459 kts 221°
2026-04-25 13:50 42.09395 7.06591 39131 ft 459 kts 221°
2026-04-25 13:50 42.04552 7.00940 39132 ft 459 kts 221°
2026-04-25 13:51 41.99768 6.95306 39127 ft 459 kts 223°
2026-04-25 13:51 41.95043 6.89494 39125 ft 459 kts 223°
2026-04-25 13:52 41.90345 6.83687 39130 ft 459 kts 223°
2026-04-25 13:52 41.85648 6.77922 39130 ft 459 kts 223°
2026-04-25 13:53 41.80934 6.72168 39132 ft 459 kts 223°
2026-04-25 13:53 41.76201 6.66406 39134 ft 458 kts 222°
2026-04-25 13:54 41.71464 6.60651 39137 ft 458 kts 222°
2026-04-25 13:54 41.66742 6.54927 39138 ft 459 kts 222°
2026-04-25 13:55 41.62005 6.49195 39134 ft 459 kts 222°
2026-04-25 13:55 41.57282 6.43491 39138 ft 459 kts 222°
2026-04-25 13:56 41.52541 6.37779 39141 ft 460 kts 222°
2026-04-25 13:56 41.47772 6.32044 39145 ft 460 kts 222°
2026-04-25 13:57 41.43043 6.26369 39145 ft 459 kts 222°
2026-04-25 13:57 41.38281 6.20665 39140 ft 459 kts 222°
2026-04-25 13:58 41.33545 6.15005 39138 ft 459 kts 222°
2026-04-25 13:58 41.28786 6.09328 39143 ft 459 kts 222°
2026-04-25 13:59 41.24011 6.03644 39146 ft 460 kts 222°
2026-04-25 13:59 41.19264 5.98006 39143 ft 460 kts 222°
2026-04-25 14:00 41.14473 5.92326 39142 ft 460 kts 221°
2026-04-25 14:00 41.09728 5.86712 39147 ft 460 kts 221°
2026-04-25 14:01 41.04938 5.81055 39147 ft 460 kts 221°
2026-04-25 14:01 41.00151 5.75412 38692 ft 466 kts 221°
2026-04-25 14:01 40.97725 5.72557 38184 ft 461 kts 221°
2026-04-25 14:02 40.95406 5.69653 37745 ft 455 kts 226°
2026-04-25 14:02 40.93346 5.66566 37325 ft 449 kts 232°
2026-04-25 14:02 40.91526 5.63237 36894 ft 443 kts 235°
2026-04-25 14:02 40.90359 5.61026 36607 ft 440 kts 235°
2026-04-25 14:03 40.88040 5.56636 36045 ft 434 kts 235°
2026-04-25 14:03 40.86304 5.53368 35615 ft 430 kts 235°
2026-04-25 14:03 40.84583 5.50145 35175 ft 427 kts 235°
2026-04-25 14:03 40.82885 5.46977 34753 ft 425 kts 235°
2026-04-25 14:04 40.81175 5.43795 34309 ft 422 kts 235°
2026-04-25 14:04 40.79478 5.40645 33849 ft 420 kts 235°
2026-04-25 14:04 40.77803 5.37540 33376 ft 417 kts 235°
2026-04-25 14:04 40.76123 5.34428 32935 ft 414 kts 235°
2026-04-25 14:05 40.74448 5.31330 32497 ft 411 kts 235°
2026-04-25 14:05 40.72810 5.28301 32077 ft 408 kts 235°
2026-04-25 14:05 40.71159 5.25252 31657 ft 405 kts 235°
2026-04-25 14:05 40.69522 5.22232 31239 ft 403 kts 235°
2026-04-25 14:06 40.67911 5.19262 30829 ft 401 kts 236°
2026-04-25 14:06 40.66287 5.16271 30414 ft 399 kts 236°
2026-04-25 14:06 40.64688 5.13328 29967 ft 397 kts 236°
2026-04-25 14:06 40.63084 5.10380 29500 ft 395 kts 236°
2026-04-25 14:07 40.61484 5.07441 29072 ft 392 kts 236°
2026-04-25 14:07 40.59896 5.04527 28653 ft 390 kts 236°
2026-04-25 14:07 40.58336 5.01667 28221 ft 387 kts 236°
2026-04-25 14:07 40.56763 4.98786 27813 ft 385 kts 236°
2026-04-25 14:08 40.55195 4.95917 27384 ft 383 kts 236°
2026-04-25 14:08 40.53663 4.93116 26980 ft 381 kts 235°
2026-04-25 14:08 40.52115 4.90288 26568 ft 379 kts 235°
2026-04-25 14:08 40.50574 4.87475 26163 ft 377 kts 235°
2026-04-25 14:09 40.49043 4.84683 25776 ft 375 kts 235°
2026-04-25 14:09 40.47539 4.81941 25383 ft 373 kts 235°
2026-04-25 14:09 40.46026 4.79187 25149 ft 367 kts 235°
2026-04-25 14:09 40.45037 4.77389 25144 ft 365 kts 235°
2026-04-25 14:10 40.43024 4.73740 25152 ft 376 kts 235°
2026-04-25 14:10 40.41490 4.70983 24741 ft 368 kts 234°
2026-04-25 14:10 40.39989 4.68296 24023 ft 360 kts 234°
2026-04-25 14:10 40.38513 4.65650 23072 ft 356 kts 234°
2026-04-25 14:11 40.37057 4.63018 22273 ft 364 kts 234°
2026-04-25 14:11 40.35564 4.60316 21849 ft 362 kts 234°
2026-04-25 14:11 40.34092 4.57650 21546 ft 357 kts 234°
2026-04-25 14:11 40.32648 4.55039 21169 ft 354 kts 234°
2026-04-25 14:12 40.31200 4.52422 20761 ft 353 kts 234°
2026-04-25 14:12 40.29763 4.49826 20412 ft 350 kts 234°
2026-04-25 14:12 40.28353 4.47282 20019 ft 349 kts 233°
2026-04-25 14:12 40.26924 4.44707 19622 ft 348 kts 233°
2026-04-25 14:13 40.25504 4.42151 19284 ft 345 kts 233°
2026-04-25 14:13 40.24106 4.39635 18954 ft 342 kts 233°
2026-04-25 14:13 40.22701 4.37110 18602 ft 340 kts 233°
2026-04-25 14:13 40.21305 4.34603 18204 ft 339 kts 233°
2026-04-25 14:14 40.19913 4.32107 17789 ft 338 kts 233°
2026-04-25 14:14 40.18544 4.29652 17395 ft 336 kts 233°
2026-04-25 14:14 40.17174 4.27197 16998 ft 335 kts 233°
2026-04-25 14:14 40.15791 4.24721 16595 ft 334 kts 233°
2026-04-25 14:15 40.14421 4.22270 16229 ft 334 kts 233°
2026-04-25 14:15 40.13973 4.21469 16127 ft 334 kts 233°
2026-04-25 14:15 40.11695 4.17398 15608 ft 331 kts 234°
2026-04-25 14:15 40.10329 4.14960 15274 ft 331 kts 234°
2026-04-25 14:16 40.08978 4.12551 15193 ft 323 kts 234°
2026-04-25 14:16 40.07647 4.10178 15147 ft 325 kts 234°
2026-04-25 14:16 40.06315 4.07806 15153 ft 329 kts 234°
2026-04-25 14:16 40.04947 4.05371 15150 ft 333 kts 234°
2026-04-25 14:17 40.03587 4.02954 15137 ft 332 kts 234°
2026-04-25 14:17 40.02213 4.00513 15124 ft 332 kts 234°
2026-04-25 14:17 40.00858 3.98105 15135 ft 331 kts 234°
2026-04-25 14:17 39.99491 3.95682 15132 ft 330 kts 234°
2026-04-25 14:18 39.98143 3.93290 15133 ft 329 kts 234°
2026-04-25 14:18 39.96783 3.90881 15134 ft 328 kts 234°
2026-04-25 14:18 39.95440 3.88503 15145 ft 328 kts 234°
2026-04-25 14:18 39.94095 3.86124 14948 ft 319 kts 234°
2026-04-25 14:19 39.92795 3.83825 14406 ft 310 kts 234°
2026-04-25 14:19 39.91518 3.81570 13615 ft 307 kts 234°
2026-04-25 14:19 39.90263 3.79357 12751 ft 305 kts 234°
2026-04-25 14:19 39.88997 3.77126 11859 ft 304 kts 234°
2026-04-25 14:20 39.87746 3.74922 10978 ft 304 kts 234°
2026-04-25 14:20 39.87336 3.74201 10760 ft 303 kts 234°
2026-04-25 14:20 39.85230 3.70501 10376 ft 307 kts 233°
2026-04-25 14:20 39.83948 3.68250 10106 ft 307 kts 234°
2026-04-25 14:21 39.82702 3.66062 9845 ft 294 kts 233°
2026-04-25 14:21 39.81520 3.63988 9263 ft 283 kts 233°
2026-04-25 14:21 39.80324 3.61891 8699 ft 290 kts 233°
2026-04-25 14:21 39.79143 3.59821 8487 ft 284 kts 233°
2026-04-25 14:22 39.77972 3.57770 8272 ft 274 kts 233°
2026-04-25 14:22 39.76886 3.55869 8215 ft 248 kts 233°
2026-04-25 14:22 39.75971 3.54018 8161 ft 240 kts 251°
2026-04-25 14:22 39.75806 3.51915 8172 ft 241 kts 284°
2026-04-25 14:23 39.76467 3.49901 8220 ft 246 kts 303°
2026-04-25 14:23 39.77413 3.48043 8213 ft 250 kts 306°
2026-04-25 14:23 39.78421 3.46187 7924 ft 247 kts 307°
2026-04-25 14:23 39.79398 3.44424 7478 ft 237 kts 307°
2026-04-25 14:24 39.80343 3.42723 7084 ft 231 kts 307°
2026-04-25 14:24 39.81299 3.40985 6726 ft 239 kts 307°
2026-04-25 14:24 39.82279 3.39195 6364 ft 245 kts 305°
2026-04-25 14:24 39.82846 3.37183 6261 ft 238 kts 269°
2026-04-25 14:25 39.82337 3.35186 6272 ft 236 kts 232°
2026-04-25 14:25 39.81344 3.33458 6299 ft 241 kts 235°
2026-04-25 14:25 39.80441 3.31621 6304 ft 244 kts 238°
2026-04-25 14:25 39.80144 3.30982 6301 ft 243 kts 238°
2026-04-25 14:26 39.78740 3.27819 6069 ft 244 kts 240°
2026-04-25 14:26 39.77912 3.25884 5640 ft 250 kts 240°
2026-04-25 14:26 39.77083 3.23910 5620 ft 251 kts 240°
2026-04-25 14:26 39.76223 3.21843 5639 ft 265 kts 241°
2026-04-25 14:27 39.75353 3.19731 5641 ft 269 kts 241°
2026-04-25 14:27 39.74468 3.17579 5635 ft 265 kts 241°
2026-04-25 14:27 39.73617 3.15494 5437 ft 259 kts 240°
2026-04-25 14:27 39.72792 3.13456 5233 ft 256 kts 243°
2026-04-25 14:28 39.72012 3.11408 5111 ft 246 kts 241°
2026-04-25 14:28 39.71203 3.09505 5039 ft 238 kts 239°
2026-04-25 14:28 39.70357 3.07662 5041 ft 241 kts 237°
2026-04-25 14:28 39.69476 3.05783 5035 ft 240 kts 237°
2026-04-25 14:29 39.68615 3.03953 4877 ft 242 kts 238°
2026-04-25 14:29 39.67737 3.02083 4551 ft 244 kts 238°
2026-04-25 14:29 39.66840 3.00176 4243 ft 245 kts 238°
2026-04-25 14:29 39.65958 2.98300 3913 ft 247 kts 238°
2026-04-25 14:30 39.65070 2.96411 3560 ft 239 kts 238°
2026-04-25 14:30 39.63436 2.92931 3043 ft 218 kts 238°
2026-04-25 14:30 39.62668 2.91295 2699 ft 205 kts 238°
2026-04-25 14:31 39.61959 2.89780 2412 ft 189 kts 237°
2026-04-25 14:31 39.61299 2.88387 2179 ft 177 kts 236°
2026-04-25 14:31 39.60688 2.87094 1936 ft 154 kts 236°
2026-04-25 14:31 39.60148 2.85945 1721 ft 148 kts 238°
2026-04-25 14:32 39.59616 2.84813 1554 ft 149 kts 236°
2026-04-25 14:32 39.59074 2.83659 1373 ft 148 kts 236°
2026-04-25 14:32 39.58530 2.82510 1163 ft 146 kts 236°
2026-04-25 14:32 39.58013 2.81410 990 ft 143 kts 237°
2026-04-25 14:33 39.57501 2.80322 804 ft 139 kts 236°
2026-04-25 14:33 39.57001 2.79261 623 ft 131 kts 238°
2026-04-25 14:33 39.56530 2.78259 423 ft 130 kts 239°
2026-04-25 14:33 39.56060 2.77266 261 ft 129 kts 239°
2026-04-25 14:34 39.55597 2.76277 106 ft 128 kts 239°
2026-04-25 14:34 39.55162 2.75357 43 ft 99 kts 237°
2026-04-25 14:34 39.54907 2.74820 43 ft 32 kts 239°
2026-04-25 14:34 39.54813 2.74523 43 ft 35 kts 260°
2026-04-25 14:35 39.54804 2.74364 43 ft 0 kts 268°
2026-04-25 14:36 39.54803 2.74341 43 ft 8 kts 268°
2026-04-25 14:36 39.54803 2.74223 43 ft 16 kts 278°
2026-04-25 14:36 39.54858 2.74107 43 ft 16 kts 321°
2026-04-25 14:36 39.54948 2.74029 43 ft 16 kts 328°
2026-04-25 14:37 39.55041 2.73957 43 ft 16 kts 329°
2026-04-25 14:37 39.55134 2.73884 43 ft 16 kts 328°
2026-04-25 14:37 39.55228 2.73810 43 ft 16 kts 328°
2026-04-25 14:37 39.55319 2.73737 43 ft 16 kts 328°
2026-04-25 14:38 39.55413 2.73663 43 ft 16 kts 329°
2026-04-25 14:38 39.55487 2.73598 42 ft 11 kts 306°
2026-04-25 14:38 39.55472 2.73506 43 ft 11 kts 257°
2026-04-25 14:38 39.55508 2.73448 43 ft 6 kts 326°
2026-04-25 14:39 39.55522 2.73414 43 ft 4 kts 276°
2026-04-25 14:39 39.55524 2.73402 43 ft 0 kts 277°